DIRECTV 5 (TEMPO 1) (27426 NORAD) Tracking and Keplerian Element Data

This shows tracking and keplerian element data for the satellite.

Feedback or suggestion? Click here.




ElementValue
Catalog27426
NameDIRECTV 5 (TEMPO 1)
Epoch Orbit6078
Epoch Day345.0842409
Epoch Year2018
RAAN327.5894
Inclination0.0231
Eccentricity0.0002894
Argument of Perigee292.3453
Mean Anonmoly100.0326
Mean Motion1.00269926
Decay Rate-5E-07
L11 27426U 02023A 18345.08424090 -.00000050 00000-0 00000+0 0 9991
L22 27426 0.0231 327.5894 0002894 292.3453 100.0326 1.00269926 60786

Live tracking and technical data element details for DIRECTV 5 (TEMPO 1) (NORAD 27426). DIRECTV 5 (TEMPO 1) can be tracked NOW for your location showing map with azimuth and elevation plus other details from your city location.

Track the satellite on the map from your city or location and see movement details for azimuth, elevation, latitude, longitude, range, height, and movement on the map or in text.







IsCatalogInMostPopularTable: catalog: 27426, numindb: 61
Update: records affected: 1



GetName: 27426 DIRECTV 5 (TEMPO 1)

Hit Count: updated at: Thu, 13 Dec 2018 04:58:51 GMT